Year,Month,Day,Hour,Minute,Value (Times are PST for temperature in C)
2021,01,23,00,01,-0.40
2021,01,23,00,02,-0.30
2021,01,23,00,04,-0.30
2021,01,23,00,06,-0.40
2021,01,23,00,07,-0.40
2021,01,23,00,08,-0.40
2021,01,23,00,09,-0.40
2021,01,23,00,11,-0.40
2021,01,23,00,13,-0.60
2021,01,23,00,14,-0.60
2021,01,23,00,15,-0.60
2021,01,23,00,16,-0.60
2021,01,23,00,17,-0.70
2021,01,23,00,18,-0.70
2021,01,23,00,19,-0.70
2021,01,23,00,20,-0.70
2021,01,23,00,21,-0.70
2021,01,23,00,22,-0.70
2021,01,23,00,23,-0.70
2021,01,23,00,24,-0.70
2021,01,23,00,25,-0.80
2021,01,23,00,26,-0.80
2021,01,23,00,27,-0.80
2021,01,23,00,28,-0.70
2021,01,23,00,29,-0.70
2021,01,23,00,31,-0.70
2021,01,23,00,32,-0.70
2021,01,23,00,33,-0.70
2021,01,23,00,34,-0.70
2021,01,23,00,35,-0.70
2021,01,23,00,36,-0.70
2021,01,23,00,37,-0.70
2021,01,23,00,38,-0.70
2021,01,23,00,39,-0.70
2021,01,23,00,40,-0.70
2021,01,23,00,42,-0.80
2021,01,23,00,43,-0.80
2021,01,23,00,44,-0.80
2021,01,23,00,45,-0.80
2021,01,23,00,46,-0.80
2021,01,23,00,48,-0.80
2021,01,23,00,49,-0.80
2021,01,23,00,50,-0.80
2021,01,23,00,51,-0.80
2021,01,23,00,52,-0.90
2021,01,23,00,53,-0.90
2021,01,23,00,54,-0.90
2021,01,23,00,55,-0.90
2021,01,23,00,56,-0.90
2021,01,23,00,57,-0.90
2021,01,23,00,58,-0.90
2021,01,23,00,59,-0.90
2021,01,23,01,01,-0.90
2021,01,23,01,02,-0.90
2021,01,23,01,03,-0.90
2021,01,23,01,04,-0.90
2021,01,23,01,05,-0.90
2021,01,23,01,06,-0.90
2021,01,23,01,07,-0.90
2021,01,23,01,08,-0.90
2021,01,23,01,09,-0.90
2021,01,23,01,10,-0.90
2021,01,23,01,11,-0.90
2021,01,23,01,12,-0.90
2021,01,23,01,13,-0.90
2021,01,23,01,14,-0.90
2021,01,23,01,15,-0.90
2021,01,23,01,16,-1.00
2021,01,23,01,17,-0.90
2021,01,23,01,18,-1.00
2021,01,23,01,20,-1.00
2021,01,23,01,21,-1.00
2021,01,23,01,22,-1.00
2021,01,23,01,23,-1.00
2021,01,23,01,25,-0.90
2021,01,23,01,26,-0.90
2021,01,23,01,27,-0.90
2021,01,23,01,28,-0.90
2021,01,23,01,30,-0.90
2021,01,23,01,31,-1.00
2021,01,23,01,32,-0.90
2021,01,23,01,33,-0.90
2021,01,23,01,34,-0.90
2021,01,23,01,35,-0.90
2021,01,23,01,36,-0.90
2021,01,23,01,37,-0.90
2021,01,23,01,38,-0.90
2021,01,23,01,39,-0.90
2021,01,23,01,40,-0.90
2021,01,23,01,41,-0.90
2021,01,23,01,43,-0.90
2021,01,23,01,44,-0.90
2021,01,23,01,45,-0.90
2021,01,23,01,46,-0.90
2021,01,23,01,47,-0.90
2021,01,23,01,48,-0.90
2021,01,23,01,49,-0.90
2021,01,23,01,50,-0.90
2021,01,23,01,52,-1.00
2021,01,23,01,53,-1.00
2021,01,23,01,54,-1.00
2021,01,23,01,55,-1.10
2021,01,23,01,56,-1.10
2021,01,23,01,57,-1.10
2021,01,23,01,58,-1.10
2021,01,23,02,00,-1.10
2021,01,23,02,01,-1.10
2021,01,23,02,02,-1.10
2021,01,23,02,03,-1.10
2021,01,23,02,04,-1.10
2021,01,23,02,05,-1.10
2021,01,23,02,06,-1.10
2021,01,23,02,08,-1.10
2021,01,23,02,09,-1.10
2021,01,23,02,10,-1.10
2021,01,23,02,11,-1.00
2021,01,23,02,12,-1.00
2021,01,23,02,13,-1.00
2021,01,23,02,14,-1.00
2021,01,23,02,15,-1.00
2021,01,23,02,16,-1.10
2021,01,23,02,17,-1.10
2021,01,23,02,18,-1.10
2021,01,23,02,19,-1.10
2021,01,23,02,20,-1.20
2021,01,23,02,21,-1.20
2021,01,23,02,22,-1.20
2021,01,23,02,23,-1.20
2021,01,23,02,24,-1.20
2021,01,23,02,26,-1.20
2021,01,23,02,27,-1.20
2021,01,23,02,28,-1.20
2021,01,23,02,29,-1.20
2021,01,23,02,30,-1.30
2021,01,23,02,31,-1.30
2021,01,23,02,32,-1.30
2021,01,23,02,33,-1.30
2021,01,23,02,34,-1.30
2021,01,23,02,35,-1.30
2021,01,23,02,36,-1.30
2021,01,23,02,37,-1.30
2021,01,23,02,38,-1.30
2021,01,23,02,39,-1.30
2021,01,23,02,40,-1.30
2021,01,23,02,41,-1.30
2021,01,23,02,42,-1.30
2021,01,23,02,43,-1.30
2021,01,23,02,44,-1.20
2021,01,23,02,46,-1.20
2021,01,23,02,47,-1.20
2021,01,23,02,48,-1.20
2021,01,23,02,49,-1.20
2021,01,23,02,50,-1.20
2021,01,23,02,51,-1.20
2021,01,23,02,52,-1.20
2021,01,23,02,54,-1.20
2021,01,23,02,55,-1.20
2021,01,23,02,56,-1.20
2021,01,23,02,57,-1.20
2021,01,23,02,58,-1.20
2021,01,23,02,59,-1.20
2021,01,23,03,00,-1.20
2021,01,23,03,01,-1.20
2021,01,23,03,02,-1.20
2021,01,23,03,04,-1.20
2021,01,23,03,05,-1.20
2021,01,23,03,06,-1.20
2021,01,23,03,07,-1.10
2021,01,23,03,08,-1.10
2021,01,23,03,09,-1.10
2021,01,23,03,10,-1.10
2021,01,23,03,11,-1.10
2021,01,23,03,12,-1.10
2021,01,23,03,13,-1.10
2021,01,23,03,14,-1.10
2021,01,23,03,15,-1.10
2021,01,23,03,16,-1.10
2021,01,23,03,17,-1.10
2021,01,23,03,18,-1.10
2021,01,23,03,19,-1.10
2021,01,23,03,20,-1.10
2021,01,23,03,21,-1.10
2021,01,23,03,22,-1.10
2021,01,23,03,23,-1.10
2021,01,23,03,24,-1.10
2021,01,23,03,25,-1.10
2021,01,23,03,26,-1.10
2021,01,23,03,27,-1.10
2021,01,23,03,28,-1.10
2021,01,23,03,29,-1.10
2021,01,23,03,30,-1.10
2021,01,23,03,31,-1.10
2021,01,23,03,32,-1.10
2021,01,23,03,33,-1.10
2021,01,23,03,35,-1.10
2021,01,23,03,36,-1.10
2021,01,23,03,37,-1.10
2021,01,23,03,38,-1.10
2021,01,23,03,39,-1.10
2021,01,23,03,40,-1.10
2021,01,23,03,41,-1.10
2021,01,23,03,43,-1.10
2021,01,23,03,44,-1.10
2021,01,23,03,45,-1.10
2021,01,23,03,46,-1.20
2021,01,23,03,47,-1.20
2021,01,23,03,48,-1.20
2021,01,23,03,49,-1.20
2021,01,23,03,50,-1.30
2021,01,23,03,51,-1.30
2021,01,23,03,52,-1.30
2021,01,23,03,53,-1.30
2021,01,23,03,54,-1.30
2021,01,23,03,55,-1.30
2021,01,23,03,56,-1.30
2021,01,23,03,57,-1.30
2021,01,23,03,58,-1.30
2021,01,23,03,59,-1.30
2021,01,23,04,00,-1.30
2021,01,23,04,01,-1.30
2021,01,23,04,02,-1.30
2021,01,23,04,03,-1.30
2021,01,23,04,04,-1.30
2021,01,23,04,06,-1.30
2021,01,23,04,07,-1.20
2021,01,23,04,08,-1.20
2021,01,23,04,09,-1.20
2021,01,23,04,10,-1.20
2021,01,23,04,11,-1.20
2021,01,23,04,12,-1.20
2021,01,23,04,13,-1.20
2021,01,23,04,14,-1.20
2021,01,23,04,15,-1.20
2021,01,23,04,16,-1.20
2021,01,23,04,17,-1.20
2021,01,23,04,18,-1.20
2021,01,23,04,19,-1.20
2021,01,23,04,20,-1.10
2021,01,23,04,21,-1.10
2021,01,23,04,22,-1.10
2021,01,23,04,23,-1.10
2021,01,23,04,24,-1.10
2021,01,23,04,25,-1.10
2021,01,23,04,26,-1.10
2021,01,23,04,27,-1.10
2021,01,23,04,28,-1.10
2021,01,23,04,29,-1.10
2021,01,23,04,30,-1.10
2021,01,23,04,31,-1.10
2021,01,23,04,32,-1.10
2021,01,23,04,33,-1.10
2021,01,23,04,34,-1.10
2021,01,23,04,35,-1.10
2021,01,23,04,36,-1.10
2021,01,23,04,37,-1.10
2021,01,23,04,38,-1.10
2021,01,23,04,39,-1.10
2021,01,23,04,40,-1.10
2021,01,23,04,41,-1.10
2021,01,23,04,42,-1.10
2021,01,23,04,43,-1.10
2021,01,23,04,44,-1.10
2021,01,23,04,45,-1.10
2021,01,23,04,46,-1.10
2021,01,23,04,47,-1.10
2021,01,23,04,48,-1.10
2021,01,23,04,49,-1.10
2021,01,23,04,50,-1.10
2021,01,23,04,51,-1.10
2021,01,23,04,52,-1.10
2021,01,23,04,53,-1.10
2021,01,23,04,54,-1.10
2021,01,23,04,56,-1.10
2021,01,23,04,57,-1.10
2021,01,23,04,58,-1.10
2021,01,23,05,00,-1.10
2021,01,23,05,01,-1.10
2021,01,23,05,02,-1.10
2021,01,23,05,03,-1.10
2021,01,23,05,04,-1.10
2021,01,23,05,05,-1.10
2021,01,23,05,06,-1.20
2021,01,23,05,07,-1.20
2021,01,23,05,08,-1.20
2021,01,23,05,09,-1.20
2021,01,23,05,11,-1.20
2021,01,23,05,12,-1.20
2021,01,23,05,13,-1.20
2021,01,23,05,14,-1.20
2021,01,23,05,15,-1.20
2021,01,23,05,16,-1.30
2021,01,23,05,17,-1.20
2021,01,23,05,18,-1.30
2021,01,23,05,19,-1.30
2021,01,23,05,20,-1.30
2021,01,23,05,21,-1.30
2021,01,23,05,22,-1.20
2021,01,23,05,23,-1.20
2021,01,23,05,24,-1.20
2021,01,23,05,25,-1.20
2021,01,23,05,27,-1.20
2021,01,23,05,28,-1.20
2021,01,23,05,29,-1.20
2021,01,23,05,30,-1.20
2021,01,23,05,31,-1.20
2021,01,23,05,32,-1.20
2021,01,23,05,33,-1.20
2021,01,23,05,34,-1.20
2021,01,23,05,36,-1.20
2021,01,23,05,37,-1.20
2021,01,23,05,38,-1.20
2021,01,23,05,39,-1.20
2021,01,23,05,40,-1.20
2021,01,23,05,41,-1.30
2021,01,23,05,42,-1.30
2021,01,23,05,44,-1.30
2021,01,23,05,45,-1.30
2021,01,23,05,46,-1.30
2021,01,23,05,47,-1.30
2021,01,23,05,48,-1.30
2021,01,23,05,49,-1.30
2021,01,23,05,50,-1.30
2021,01,23,05,51,-1.30
2021,01,23,05,52,-1.30
2021,01,23,05,53,-1.30
2021,01,23,05,54,-1.30
2021,01,23,05,55,-1.30
2021,01,23,05,56,-1.30
2021,01,23,05,58,-1.30
2021,01,23,05,59,-1.30
2021,01,23,06,00,-1.30
2021,01,23,06,01,-1.30
2021,01,23,06,02,-1.30
2021,01,23,06,03,-1.30
2021,01,23,06,04,-1.30
2021,01,23,06,05,-1.30
2021,01,23,06,06,-1.30
2021,01,23,06,07,-1.30
2021,01,23,06,08,-1.30
2021,01,23,06,09,-1.30
2021,01,23,06,10,-1.30
2021,01,23,06,11,-1.30
2021,01,23,06,12,-1.30
2021,01,23,06,13,-1.30
2021,01,23,06,14,-1.30
2021,01,23,09,37,-1.40
2021,01,23,09,38,-1.40
2021,01,23,09,39,-1.40
2021,01,23,09,40,-1.40
2021,01,23,09,41,-1.50
2021,01,23,09,42,-1.50
2021,01,23,09,43,-1.50
2021,01,23,09,44,-1.50
2021,01,23,09,45,-1.50
2021,01,23,09,46,-1.60
2021,01,23,09,47,-1.60
2021,01,23,09,49,-1.60
2021,01,23,09,50,-1.60
2021,01,23,09,51,-1.60
2021,01,23,09,52,-1.60
2021,01,23,09,53,-1.60
2021,01,23,09,54,-1.60
2021,01,23,09,55,-1.60
2021,01,23,09,56,-1.60
2021,01,23,09,57,-1.60
2021,01,23,09,58,-1.60
2021,01,23,09,59,-1.60
2021,01,23,10,00,-1.60
2021,01,23,10,01,-1.60
2021,01,23,10,03,-1.50
2021,01,23,10,04,-1.40
2021,01,23,10,05,-1.40
2021,01,23,10,06,-1.40
2021,01,23,10,07,-1.40
2021,01,23,10,08,-1.40
2021,01,23,10,09,-1.50
2021,01,23,10,10,-1.50
2021,01,23,10,12,-1.50
2021,01,23,10,13,-1.50
2021,01,23,10,14,-1.50
2021,01,23,10,15,-1.50
2021,01,23,10,16,-1.40
2021,01,23,10,17,-1.40
2021,01,23,10,18,-1.40
2021,01,23,10,19,-1.40
2021,01,23,10,20,-1.30
2021,01,23,10,21,-1.30
2021,01,23,10,24,-1.30
2021,01,23,10,26,-1.30
2021,01,23,10,27,-1.30
2021,01,23,10,28,-1.30
2021,01,23,10,29,-1.30
2021,01,23,10,30,-1.30
2021,01,23,10,31,-1.30
2021,01,23,10,32,-1.30
2021,01,23,10,33,-1.30
2021,01,23,10,35,-1.30
2021,01,23,10,36,-1.20
2021,01,23,10,37,-1.20
2021,01,23,10,39,-1.20
2021,01,23,10,40,-1.20
2021,01,23,10,41,-1.30
2021,01,23,10,43,-1.20
2021,01,23,10,44,-1.20
2021,01,23,10,45,-1.20
2021,01,23,10,46,-1.20
2021,01,23,10,48,-1.20
2021,01,23,10,49,-1.20
2021,01,23,10,50,-1.10
2021,01,23,10,51,-1.10
2021,01,23,10,52,-1.10
2021,01,23,10,53,-1.10
2021,01,23,10,54,-1.10
2021,01,23,10,55,-1.10
2021,01,23,10,56,-1.10
2021,01,23,10,57,-1.10
2021,01,23,10,58,-1.00
2021,01,23,10,59,-1.00
2021,01,23,11,00,-0.90
2021,01,23,11,01,-0.90
2021,01,23,11,02,-0.90
2021,01,23,11,03,-0.80
2021,01,23,11,04,-0.80
2021,01,23,11,05,-0.80
2021,01,23,11,06,-0.80
2021,01,23,11,07,-0.80
2021,01,23,11,08,-0.80
2021,01,23,11,09,-0.70
2021,01,23,11,10,-0.70
2021,01,23,11,11,-0.70
2021,01,23,11,12,-0.70
2021,01,23,11,13,-0.70
2021,01,23,11,15,-0.80
2021,01,23,11,16,-0.80
2021,01,23,11,17,-0.80
2021,01,23,11,18,-0.80
2021,01,23,11,19,-0.80
2021,01,23,11,20,-0.70
2021,01,23,11,21,-0.70
2021,01,23,11,22,-0.70
2021,01,23,11,24,-0.70
2021,01,23,11,25,-0.70
2021,01,23,11,26,-0.70
2021,01,23,11,27,-0.70
2021,01,23,11,28,-0.70
2021,01,23,11,29,-0.70
2021,01,23,11,30,-0.70
2021,01,23,11,31,-0.70
2021,01,23,11,32,-0.70
2021,01,23,11,33,-0.70
2021,01,23,11,34,-0.70
2021,01,23,11,35,-0.70
2021,01,23,11,36,-0.70
2021,01,23,11,37,-0.70
2021,01,23,11,38,-0.70
2021,01,23,11,39,-0.70
2021,01,23,11,40,-0.70
2021,01,23,11,41,-0.70
2021,01,23,11,42,-0.70
2021,01,23,11,43,-0.70
2021,01,23,11,44,-0.70
2021,01,23,11,45,-0.70
2021,01,23,11,46,-0.70
2021,01,23,11,48,-0.70
2021,01,23,11,49,-0.70
2021,01,23,11,50,-0.60
2021,01,23,11,51,-0.60
2021,01,23,11,52,-0.60
2021,01,23,11,54,-0.60
2021,01,23,11,56,-0.50
2021,01,23,11,57,-0.40
2021,01,23,11,58,-0.40
2021,01,23,11,59,-0.40
2021,01,23,12,00,-0.50
2021,01,23,12,01,-0.40
2021,01,23,12,02,-0.40
2021,01,23,12,03,-0.40
2021,01,23,12,04,-0.40
2021,01,23,12,05,-0.40
2021,01,23,12,06,-0.40
2021,01,23,12,08,-0.40
2021,01,23,12,09,-0.40
2021,01,23,12,10,-0.40
2021,01,23,12,12,-0.30
2021,01,23,12,13,-0.30
2021,01,23,12,14,-0.30
2021,01,23,12,15,-0.30
2021,01,23,12,16,-0.30
2021,01,23,12,17,-0.30
2021,01,23,12,18,-0.30
2021,01,23,12,20,-0.30
2021,01,23,12,21,-0.30
2021,01,23,12,22,-0.30
2021,01,23,12,23,-0.20
2021,01,23,12,25,-0.20
2021,01,23,12,26,-0.20
2021,01,23,12,27,-0.20
2021,01,23,12,28,-0.20
2021,01,23,12,29,-0.20
2021,01,23,12,30,-0.20
2021,01,23,12,31,-0.20
2021,01,23,12,32,-0.20
2021,01,23,12,33,-0.20
2021,01,23,12,35,-0.10
2021,01,23,12,36,-0.10
2021,01,23,12,37,-0.10
2021,01,23,12,39,-0.10
2021,01,23,12,41,-0.10
2021,01,23,12,42,-0.10
2021,01,23,12,43,-0.10
2021,01,23,12,44,-0.10
2021,01,23,12,47,-0.10
2021,01,23,12,48,-0.10
2021,01,23,12,50,-0.10
2021,01,23,12,52,-0.10
2021,01,23,12,53,-0.10
2021,01,23,12,54,-0.10
2021,01,23,12,55,-0.10
2021,01,23,12,56,-0.10
2021,01,23,12,57,-0.10
2021,01,23,13,00,-0.10
2021,01,23,13,01,-0.10
2021,01,23,13,04,-0.10
2021,01,23,13,05,-0.10
2021,01,23,13,06,-0.10
2021,01,23,13,07,-0.10
2021,01,23,13,08,-0.10
2021,01,23,13,09,-0.10
2021,01,23,13,10,-0.10
2021,01,23,13,11,-0.10
2021,01,23,13,12,-0.10
2021,01,23,13,13,-0.10
2021,01,23,13,15,-0.10
2021,01,23,13,17,0.00
2021,01,23,13,18,0.00
2021,01,23,13,19,0.00
2021,01,23,13,20,0.00
2021,01,23,13,21,0.10
2021,01,23,13,22,0.10
2021,01,23,13,23,0.10
2021,01,23,13,24,0.10
2021,01,23,13,25,0.10
2021,01,23,13,26,0.10
2021,01,23,13,27,0.10
2021,01,23,13,29,0.20
2021,01,23,13,30,0.20
2021,01,23,13,31,0.20
2021,01,23,13,32,0.20
2021,01,23,13,33,0.20
2021,01,23,13,35,0.20
2021,01,23,13,36,0.20
2021,01,23,13,38,0.20
2021,01,23,13,39,0.20
2021,01,23,13,40,0.20
2021,01,23,13,41,0.20
2021,01,23,13,42,0.20
2021,01,23,13,43,0.20
2021,01,23,13,45,0.20
2021,01,23,13,46,0.20
2021,01,23,13,48,0.20
2021,01,23,13,49,0.30
2021,01,23,13,50,0.30
2021,01,23,13,51,0.30
2021,01,23,13,52,0.30
2021,01,23,13,53,0.30
2021,01,23,13,54,0.40
2021,01,23,13,55,0.40
2021,01,23,13,56,0.40
2021,01,23,13,57,0.40
2021,01,23,13,58,0.40
2021,01,23,13,59,0.40
2021,01,23,14,00,0.40
2021,01,23,14,01,0.40
2021,01,23,14,03,0.50
2021,01,23,14,04,0.50
2021,01,23,14,05,0.50
2021,01,23,14,06,0.50
2021,01,23,14,07,0.50
2021,01,23,14,08,0.50
2021,01,23,14,09,0.50
2021,01,23,14,11,0.50
2021,01,23,14,12,0.50
2021,01,23,14,13,0.50
2021,01,23,14,14,0.50
2021,01,23,14,15,0.50
2021,01,23,14,16,0.60
2021,01,23,14,18,0.60
2021,01,23,14,19,0.60
2021,01,23,14,20,0.60
2021,01,23,14,21,0.60
2021,01,23,14,22,0.60
2021,01,23,14,23,0.60
2021,01,23,14,24,0.70
2021,01,23,14,26,0.70
2021,01,23,14,27,0.70
2021,01,23,14,28,0.70
2021,01,23,14,29,0.70
2021,01,23,14,30,0.70
2021,01,23,14,31,0.70
2021,01,23,14,32,0.70
2021,01,23,14,33,0.70
2021,01,23,14,34,0.70
2021,01,23,14,35,0.70
2021,01,23,14,36,0.70
2021,01,23,14,37,0.70
2021,01,23,14,38,0.70
2021,01,23,14,39,0.70
2021,01,23,14,40,0.70
2021,01,23,14,41,0.70
2021,01,23,14,42,0.70
2021,01,23,14,43,0.70
2021,01,23,14,44,0.70
2021,01,23,14,45,0.70
2021,01,23,14,46,0.70
2021,01,23,14,47,0.70
2021,01,23,14,48,0.70
2021,01,23,14,49,0.70
2021,01,23,14,50,0.70
2021,01,23,14,52,0.70
2021,01,23,14,53,0.70
2021,01,23,14,54,0.70
2021,01,23,14,56,0.70
2021,01,23,14,57,0.70
2021,01,23,14,58,0.70
2021,01,23,14,59,0.70
2021,01,23,15,00,0.70
2021,01,23,15,02,0.80
2021,01,23,15,04,0.80
2021,01,23,15,05,0.80
2021,01,23,15,06,0.80
2021,01,23,15,07,0.80
2021,01,23,15,08,0.80
2021,01,23,15,09,0.80
2021,01,23,15,10,0.80
2021,01,23,15,12,0.80
2021,01,23,15,13,0.80
2021,01,23,15,14,0.80
2021,01,23,15,15,0.80
2021,01,23,15,17,0.80
2021,01,23,15,18,0.80
2021,01,23,15,19,0.80
2021,01,23,15,20,0.80
2021,01,23,15,21,0.80
2021,01,23,15,22,0.80
2021,01,23,15,24,0.90
2021,01,23,15,26,0.90
2021,01,23,15,27,0.90
2021,01,23,15,28,0.90
2021,01,23,15,29,0.90
2021,01,23,15,30,0.90
2021,01,23,15,31,0.90
2021,01,23,15,33,0.80
2021,01,23,15,35,0.80
2021,01,23,15,36,0.80
2021,01,23,15,37,0.80
2021,01,23,15,39,0.80
2021,01,23,15,41,0.80
2021,01,23,15,42,0.80
2021,01,23,15,43,0.80
2021,01,23,15,44,0.80
2021,01,23,15,45,0.80
2021,01,23,15,46,0.80
2021,01,23,15,47,0.80
2021,01,23,15,48,0.80
2021,01,23,15,49,0.80
2021,01,23,15,50,0.80
2021,01,23,15,51,0.80
2021,01,23,15,52,0.80
2021,01,23,15,53,0.80
2021,01,23,15,54,0.80
2021,01,23,15,55,0.80
2021,01,23,15,56,0.80
2021,01,23,15,57,0.80
2021,01,23,15,58,0.80
2021,01,23,15,59,0.80
2021,01,23,16,00,0.80
2021,01,23,16,01,0.80
2021,01,23,16,03,0.80
2021,01,23,16,04,0.70
2021,01,23,16,06,0.70
2021,01,23,16,08,0.70
2021,01,23,16,09,0.70
2021,01,23,16,10,0.70
2021,01,23,16,11,0.70
2021,01,23,16,12,0.70
2021,01,23,16,13,0.70
2021,01,23,16,14,0.70
2021,01,23,16,16,0.60
2021,01,23,16,17,0.60
2021,01,23,16,18,0.60
2021,01,23,16,19,0.60
2021,01,23,16,20,0.60
2021,01,23,16,22,0.60
2021,01,23,16,23,0.60
2021,01,23,16,24,0.60
2021,01,23,16,25,0.60
2021,01,23,16,26,0.60
2021,01,23,16,27,0.60
2021,01,23,16,28,0.60
2021,01,23,16,30,0.60
2021,01,23,16,31,0.60
2021,01,23,16,32,0.60
2021,01,23,16,33,0.60
2021,01,23,16,34,0.60
2021,01,23,16,35,0.60
2021,01,23,16,37,0.60
2021,01,23,16,38,0.60
2021,01,23,16,39,0.60
2021,01,23,16,40,0.60
2021,01,23,16,41,0.60
2021,01,23,16,43,0.60
2021,01,23,16,44,0.60
2021,01,23,16,45,0.60
2021,01,23,16,46,0.60
2021,01,23,16,47,0.60
2021,01,23,16,48,0.60
2021,01,23,16,49,0.60
2021,01,23,16,50,0.60
2021,01,23,16,51,0.60
2021,01,23,16,52,0.60
2021,01,23,16,53,0.60
2021,01,23,16,54,0.60
2021,01,23,16,55,0.60
2021,01,23,16,56,0.60
2021,01,23,16,57,0.60
2021,01,23,16,58,0.60
2021,01,23,16,59,0.60
2021,01,23,17,00,0.60
2021,01,23,17,01,0.60
2021,01,23,17,02,0.60
2021,01,23,17,03,0.60
2021,01,23,17,04,0.60
2021,01,23,17,06,0.60
2021,01,23,17,07,0.60
2021,01,23,17,08,0.60
2021,01,23,17,09,0.60
2021,01,23,17,10,0.60
2021,01,23,17,11,0.60
2021,01,23,17,12,0.60
2021,01,23,17,13,0.60
2021,01,23,17,14,0.60
2021,01,23,17,15,0.60
2021,01,23,17,17,0.60
2021,01,23,17,18,0.60
2021,01,23,17,19,0.60
2021,01,23,17,20,0.60
2021,01,23,17,22,0.60
2021,01,23,17,23,0.70
2021,01,23,17,24,0.60
2021,01,23,17,25,0.70
2021,01,23,17,26,0.70
2021,01,23,17,28,0.60
2021,01,23,17,29,0.60
2021,01,23,17,31,0.60
2021,01,23,17,32,0.60
2021,01,23,17,34,0.60
2021,01,23,17,35,0.60
2021,01,23,17,36,0.60
2021,01,23,17,38,0.60
2021,01,23,17,40,0.60
2021,01,23,17,41,0.60
2021,01,23,17,42,0.60
2021,01,23,17,43,0.60
2021,01,23,17,44,0.60
2021,01,23,17,45,0.60
2021,01,23,17,46,0.60
2021,01,23,17,48,0.60
2021,01,23,17,49,0.60
2021,01,23,17,51,0.60
2021,01,23,17,52,0.60
2021,01,23,17,54,0.60
2021,01,23,17,55,0.60
2021,01,23,17,56,0.60
2021,01,23,17,57,0.60
2021,01,23,17,58,0.60
2021,01,23,17,59,0.60
2021,01,23,18,00,0.60
2021,01,23,18,01,0.60
2021,01,23,18,02,0.60
2021,01,23,18,03,0.60
2021,01,23,18,04,0.60
2021,01,23,18,06,0.60
2021,01,23,18,07,0.60
2021,01,23,18,08,0.60
2021,01,23,18,09,0.50
2021,01,23,18,10,0.50
2021,01,23,18,11,0.50
2021,01,23,18,12,0.50
2021,01,23,18,13,0.50
2021,01,23,18,14,0.50
2021,01,23,18,17,0.50
2021,01,23,18,19,0.50
2021,01,23,18,21,0.50
2021,01,23,18,22,0.50
2021,01,23,18,24,0.40
2021,01,23,18,25,0.40
2021,01,23,18,26,0.50
2021,01,23,18,27,0.40
2021,01,23,18,28,0.50
2021,01,23,18,30,0.50
2021,01,23,18,31,0.50
2021,01,23,18,32,0.50
2021,01,23,18,34,0.50
2021,01,23,18,36,0.50
2021,01,23,18,38,0.50
2021,01,23,18,39,0.50
2021,01,23,18,40,0.50
2021,01,23,18,41,0.50
2021,01,23,18,42,0.50
2021,01,23,18,43,0.40
2021,01,23,18,44,0.50
2021,01,23,18,45,0.40
2021,01,23,18,48,0.40
2021,01,23,18,49,0.40
2021,01,23,18,50,0.40
2021,01,23,18,51,0.50
2021,01,23,18,52,0.50
2021,01,23,18,53,0.50
2021,01,23,18,54,0.50
2021,01,23,18,55,0.50
2021,01,23,18,56,0.50
2021,01,23,18,58,0.50
2021,01,23,18,59,0.50
2021,01,23,19,00,0.50
2021,01,23,19,01,0.50
2021,01,23,19,02,0.50
2021,01,23,19,03,0.50
2021,01,23,19,04,0.50
2021,01,23,19,05,0.50
2021,01,23,19,06,0.60
2021,01,23,19,08,0.60
2021,01,23,19,09,0.60
2021,01,23,19,10,0.60
2021,01,23,19,11,0.60
2021,01,23,19,12,0.60
2021,01,23,19,13,0.60
2021,01,23,19,14,0.60
2021,01,23,19,15,0.60
2021,01,23,19,17,0.60
2021,01,23,19,18,0.60
2021,01,23,19,19,0.60
2021,01,23,19,20,0.60
2021,01,23,19,22,0.60
2021,01,23,19,23,0.60
2021,01,23,19,24,0.60
2021,01,23,19,25,0.60
2021,01,23,19,26,0.60
2021,01,23,19,28,0.60
2021,01,23,19,29,0.60
2021,01,23,19,30,0.60
2021,01,23,19,31,0.60
2021,01,23,19,32,0.60
2021,01,23,19,33,0.60
2021,01,23,19,34,0.60
2021,01,23,19,36,0.60
2021,01,23,19,37,0.60
2021,01,23,19,38,0.60
2021,01,23,19,39,0.60
2021,01,23,19,40,0.60
2021,01,23,19,42,0.60
2021,01,23,19,44,0.60
2021,01,23,19,46,0.60
2021,01,23,19,47,0.60
2021,01,23,19,48,0.60
2021,01,23,19,49,0.60
2021,01,23,19,50,0.60
2021,01,23,19,51,0.60
2021,01,23,19,52,0.60
2021,01,23,19,53,0.60
2021,01,23,19,54,0.60
2021,01,23,19,55,0.60
2021,01,23,19,56,0.60
2021,01,23,19,58,0.60
2021,01,23,19,59,0.60
2021,01,23,20,00,0.60
2021,01,23,20,01,0.60
2021,01,23,20,03,0.60
2021,01,23,20,04,0.60
2021,01,23,20,06,0.60
2021,01,23,20,07,0.70
2021,01,23,20,08,0.70
2021,01,23,20,09,0.70
2021,01,23,20,10,0.70
2021,01,23,20,11,0.70
2021,01,23,20,12,0.70
2021,01,23,20,13,0.70
2021,01,23,20,15,0.70
2021,01,23,20,16,0.70
2021,01,23,20,17,0.70
2021,01,23,20,18,0.70
2021,01,23,20,19,0.70
2021,01,23,20,20,0.70
2021,01,23,20,21,0.70
2021,01,23,20,22,0.70
2021,01,23,20,23,0.70
2021,01,23,20,24,0.70
2021,01,23,20,25,0.70
2021,01,23,20,26,0.70
2021,01,23,20,27,0.70
2021,01,23,20,29,0.70
2021,01,23,20,31,0.60
2021,01,23,20,32,0.70
2021,01,23,20,33,0.60
2021,01,23,20,35,0.60
2021,01,23,20,36,0.60
2021,01,23,20,37,0.60
2021,01,23,20,38,0.60
2021,01,23,20,40,0.60
2021,01,23,20,41,0.50
2021,01,23,20,42,0.50
2021,01,23,20,43,0.50
2021,01,23,20,45,0.50
2021,01,23,20,48,0.40
2021,01,23,20,49,0.40
2021,01,23,20,50,0.40
2021,01,23,20,51,0.40
2021,01,23,20,53,0.40
2021,01,23,20,55,0.40
2021,01,23,20,56,0.40
2021,01,23,20,58,0.40
2021,01,23,20,59,0.40
2021,01,23,21,01,0.40
2021,01,23,21,02,0.50
2021,01,23,21,03,0.50
2021,01,23,21,04,0.50
2021,01,23,21,05,0.50
2021,01,23,21,06,0.50
2021,01,23,21,08,0.50
2021,01,23,21,09,0.50
2021,01,23,21,10,0.50
2021,01,23,21,11,0.50
2021,01,23,21,12,0.50
2021,01,23,21,13,0.50
2021,01,23,21,14,0.50
2021,01,23,21,16,0.50
2021,01,23,21,18,0.50
2021,01,23,21,19,0.50
2021,01,23,21,20,0.50
2021,01,23,21,21,0.50
2021,01,23,21,22,0.50
2021,01,23,21,23,0.50
2021,01,23,21,24,0.50
2021,01,23,21,25,0.50
2021,01,23,21,26,0.50
2021,01,23,21,27,0.50
2021,01,23,21,28,0.50
2021,01,23,21,29,0.50
2021,01,23,21,30,0.50
2021,01,23,21,31,0.50
2021,01,23,21,33,0.50
2021,01,23,21,35,0.50
2021,01,23,21,36,0.50
2021,01,23,21,37,0.50
2021,01,23,21,38,0.50
2021,01,23,21,39,0.60
2021,01,23,21,40,0.60
2021,01,23,21,41,0.50
2021,01,23,21,42,0.50
2021,01,23,21,43,0.50
2021,01,23,21,44,0.60
2021,01,23,21,46,0.60
2021,01,23,21,47,0.60
2021,01,23,21,49,0.60
2021,01,23,21,50,0.60
2021,01,23,21,51,0.50
2021,01,23,21,53,0.50
2021,01,23,21,55,0.60
2021,01,23,21,56,0.60
2021,01,23,21,57,0.60
2021,01,23,21,58,0.60
2021,01,23,21,59,0.60
2021,01,23,22,01,0.60
2021,01,23,22,02,0.60
2021,01,23,22,03,0.50
2021,01,23,22,04,0.50
2021,01,23,22,05,0.50
2021,01,23,22,06,0.50
2021,01,23,22,07,0.50
2021,01,23,22,08,0.50
2021,01,23,22,09,0.50
2021,01,23,22,10,0.50
2021,01,23,22,11,0.50
2021,01,23,22,12,0.50
2021,01,23,22,13,0.50
2021,01,23,22,14,0.50
2021,01,23,22,15,0.50
2021,01,23,22,16,0.50
2021,01,23,22,17,0.50
2021,01,23,22,18,0.50
2021,01,23,22,19,0.50
2021,01,23,22,20,0.50
2021,01,23,22,21,0.50
2021,01,23,22,22,0.50
2021,01,23,22,23,0.50
2021,01,23,22,24,0.50
2021,01,23,22,26,0.50
2021,01,23,22,27,0.50
2021,01,23,22,28,0.50
2021,01,23,22,29,0.50
2021,01,23,22,30,0.50
2021,01,23,22,31,0.50
2021,01,23,22,32,0.50
2021,01,23,22,33,0.50
2021,01,23,22,34,0.50
2021,01,23,22,35,0.50
2021,01,23,22,36,0.50
2021,01,23,22,37,0.50
2021,01,23,22,39,0.50
2021,01,23,22,40,0.50
2021,01,23,22,41,0.50
2021,01,23,22,42,0.50
2021,01,23,22,43,0.50
2021,01,23,22,44,0.50
2021,01,23,22,45,0.50
2021,01,23,22,47,0.50
2021,01,23,22,48,0.50
2021,01,23,22,50,0.50
2021,01,23,22,51,0.40
2021,01,23,22,52,0.40
2021,01,23,22,53,0.40
2021,01,23,22,54,0.40
2021,01,23,22,55,0.40
2021,01,23,22,56,0.40
2021,01,23,22,58,0.40
2021,01,23,22,59,0.40
2021,01,23,23,01,0.40
2021,01,23,23,02,0.40
2021,01,23,23,03,0.40
2021,01,23,23,04,0.40
2021,01,23,23,05,0.40
2021,01,23,23,07,0.40
2021,01,23,23,09,0.50
2021,01,23,23,10,0.50
2021,01,23,23,11,0.50
2021,01,23,23,12,0.50
2021,01,23,23,13,0.50
2021,01,23,23,14,0.50
2021,01,23,23,15,0.50
2021,01,23,23,16,0.50
2021,01,23,23,17,0.50
2021,01,23,23,18,0.50
2021,01,23,23,19,0.50
2021,01,23,23,20,0.50
2021,01,23,23,21,0.50
2021,01,23,23,22,0.50
2021,01,23,23,23,0.60
2021,01,23,23,24,0.60
2021,01,23,23,25,0.60
2021,01,23,23,27,0.60
2021,01,23,23,28,0.60
2021,01,23,23,29,0.60
2021,01,23,23,31,0.60
2021,01,23,23,33,0.60
2021,01,23,23,35,0.60
2021,01,23,23,36,0.60
2021,01,23,23,37,0.60
2021,01,23,23,38,0.60
2021,01,23,23,40,0.60
2021,01,23,23,41,0.60
2021,01,23,23,42,0.60
2021,01,23,23,44,0.60
2021,01,23,23,46,0.60
2021,01,23,23,47,0.60